Location: *
(49.4547°N, 7.9131°E)
Time: 17:08:44
(UTC+00:00)

SL-16 R/B - Pass Details

Date: 22 September 2019
Orbit: 840 x 849 km, 71.0° (Epoch: 21 October)

Event Time Altitude Azimuth Distance (km) Brightness Sun altitude
Rises 20:59:36 0° 318° (NW) 3,417 6.5 -31.9°
Reaches altitude 10° 21:03:04 10° 297° (WNW) 2,478 5.4 -32.2°
Maximum altitude 21:06:12 15° 263° (W) 2,119 4.6 -32.6°
Enters shadow 21:08:09 13° 240° (WSW) 2,258 4.5 -32.8°
